Location: Wellington
(41.3000°S, 174.7830°E)
Time: 11:18:54
(UTC+13:00)

Daily predictions for brighter satellites

Satellite Brightness Start Highest point End
(mag) Time Altitude Azimuth Time Altitude Azimuth Time Altitude Azimuth
Cosmos 2123 Rocket 4.1 20:05:56 10° S 20:12:22 86° E 20:18:44 10° N
Meteor 1-11 4.4 20:06:46 10° N 20:12:28 58° E 20:18:10 10° SSE
Cosmos 1656 Rocket 4.2 20:09:47 10° SSW 20:15:28 66° WNW 20:21:07 10° N
YAOGAN 6 2.8 20:13:24 10° SSE 20:17:08 56° E 20:20:49 10° N
Okean-O 3.1 20:13:18 10° S 20:17:48 71° WSW 20:22:15 10° NNW
Aureole 2 Rocket 2.2 20:16:01 10° S 20:18:44 45° ESE 20:21:21 10° NE
NOAA 12 4.2 20:13:57 10° SSE 20:19:17 88° WSW 20:24:34 10° NNW
Cosmos 1703 3.6 20:20:21 10° NNW 20:24:15 71° W 20:28:14 10° S
CZ-4 R/B 4.4 20:21:42 10° SSE 20:25:56 69° ENE 20:30:04 10° N
Cosmos 1354 Rocket 4.2 20:24:18 10° NNW 20:29:36 84° WSW 20:35:01 10° SSE
Cosmos 1605 Rocket 4.1 20:26:54 10° N 20:33:02 88° W 20:39:20 10° S
Cosmos 1833 Rocket 4.3 20:30:24 10° NE 20:33:12 14° E 20:36:00 10° ESE
Envisat 3.3 20:31:16 10° S 20:36:26 75° WSW 20:41:31 10° NNW
Cosmos 1867 3.8 20:31:20 10° SSW 20:36:41 57° SE 20:41:44 11° NE
Cosmos 1340 Rocket 3.4 20:32:53 10° SSW 20:36:52 59° W 20:40:46 10° N
H-2A R/B 3.9 20:41:40 10° E 20:42:21 10° E 20:42:25 10° E
Cosmos 2173 Rocket 4.2 20:44:40 10° NNE 20:50:27 47° E 20:56:20 10° SSE
Cosmos 1777 Rocket 4.3 20:45:42 10° N 20:50:38 44° ENE 20:55:40 10° SSE
CZ-2D R/B 3.3 20:47:32 10° SSE 20:51:22 56° E 20:55:09 10° N
Cosmos 1939 Rocket 2.9 20:49:25 10° SSE 20:53:16 52° E 20:57:06 10° N
YAOGAN 1 2.7 20:51:03 10° S 20:55:28 80° WSW 20:59:50 10° NNW
CZ-4C R/B 2.9 20:49:51 10° NNW 20:58:01 72° ENE 21:05:11 10° SE
Cosmos 1802 Rocket 4.3 20:54:58 10° NNE 21:00:54 47° E 21:06:50 10° SSE
Cosmos 1869 3.6 20:59:03 10° S 21:03:02 50° E 21:05:39 20° NNE
Cosmos 1538 Rocket 4.4 20:58:16 10° S 21:03:20 44° ESE 21:06:28 21° NE
CSL-04 Rocket 3.8 20:58:12 10° SSE 21:03:49 83° WSW 21:09:23 10° NNW
Cosmos 2082 Rocket 3.6 21:05:23 18° E 21:05:23 18° E 21:08:51 10° ESE
GPS 2-04 Rocket1 3.4 21:05:11 10° NW 21:08:15 28° N 21:09:00 26° NNE
DELTA 2 R/B (1) 3.6 21:02:49 10° WNW 21:08:28 74° N 21:12:30 20° E
Cosmos 2221 3.3 21:05:52 10° SSW 21:10:11 54° W 21:14:23 10° N
Cosmos 1766 Rocket 4.3 21:09:15 23° NE 21:11:12 34° E 21:15:18 10° SSE
ARGOS 4.4 21:07:21 10° SE 21:11:14 20° E 21:11:27 20° E
PSLV R/B 3.9 21:08:52 10° W 21:11:14 28° NNW 21:11:38 27° N
Cosmos 1892 3.4 21:11:35 29° ENE 21:12:29 33° E 21:15:58 10° SSE
Lacrosse 4 Rocket 3.7 21:10:40 10° SSE 21:12:50 13° SE 21:14:28 11° ESE
BREEZE-M DEB (TANK) 3.7 21:15:56 10° SW 21:17:47 18° SSE 21:19:48 12° ESE
DMSP B5D2-2 4.4 21:12:43 10° N 21:17:55 65° WNW 21:23:11 10° SSW
Cosmos 1076 Rocket 3.9 21:14:15 10° NNW 21:18:30 65° W 21:22:49 10° S
Cosmos 2100 Rocket 4.0 21:12:30 10° N 21:18:43 85° E 21:25:05 10° S
Ariane Rocket 2.9 21:13:54 10° SSE 21:19:03 69° ENE 21:24:08 10° N
USA 229 DEB 3.7 21:13:51 10° SW 21:20:46 83° NW 21:25:18 22° NNE
USA 229 3.7 21:13:53 10° SW 21:20:50 85° NW 21:25:22 22° NNE
Cosmos 1697 Rocket 3.8 21:16:45 10° S 21:21:40 29° SE 21:23:50 23° E
ATLAS CENTAUR R/B 4.0 21:05:43 10° NW 21:21:40 78° SW 21:27:12 10° SE
Cosmos 1408 Rocket 4.5 21:21:55 29° E 21:22:17 29° E 21:26:12 10° SSE
NOAA 11 4.2 21:17:20 10° SSE 21:22:57 86° WSW 21:28:28 10° NNW
BREEZE-M DEB (TANK) 4.4 21:18:42 10° SW 21:22:57 53° SSE 21:34:08 16° E
Okean 3 Rocket 3.6 21:19:48 16° N 21:23:13 61° E 21:27:38 10° SSE
COSMOS 2406 3.1 21:17:34 10° NNW 21:23:16 83° ENE 21:29:01 10° SSE
Cosmos 2058 3.0 21:20:07 10° N 21:24:17 79° W 21:28:30 10° S
CZ-4 R/B 3.8 21:21:48 10° SSW 21:25:09 25° WSW 21:28:30 10° NW
MOS 1 Rocket 3.9 21:24:44 30° ENE 21:26:23 41° ESE 21:31:08 10° S
NOSS 3-1 (A) 3.4 21:20:37 10° SSW 21:27:00 66° SE 21:29:46 31° NE
FREGAT/IRIS 2.5 21:24:28 10° SSE 21:27:07 60° ESE 21:27:07 60° ESE
In-Cosmos 22 Rocket 4.2 21:22:30 10° N 21:28:17 72° E 21:34:11 10° SSE
Meteor 2-20 Rocket 4.5 21:22:10 10° S 21:28:22 83° W 21:34:00 13° N
USA 186 2.0 21:28:47 10° SSE 21:31:59 51° E 21:31:59 51° E
USA 215 3.6 21:26:06 10° ESE 21:32:13 39° NE 21:38:17 10° NNW
Cosmos 2369 4.4 21:29:40 10° S 21:35:03 39° ESE 21:36:53 31° E
Cosmos 2016 Rocket 4.0 21:29:14 10° N 21:35:36 74° E 21:41:59 10° S
Cosmos 2151 2.9 21:36:43 32° N 21:38:36 71° E 21:42:55 10° SSE
CZ-2C R/B 4.3 21:34:53 10° SE 21:38:41 25° E 21:38:41 25° E
MOS 1 4.2 21:34:31 10° SSE 21:40:18 67° ENE 21:44:50 16° N
NOSS 3-1 (C) 3.5 21:35:17 10° SW 21:41:30 65° WNW 21:44:19 29° NNE
SJ-6B 3.0 21:37:37 10° SSE 21:41:42 51° E 21:41:47 51° ENE
CZ-2C R/B 3.0 21:39:24 17° N 21:43:24 62° WNW 21:48:37 10° SSW
Atlas 2A Centaur Rocket 4.4 21:16:40 10° WNW 21:43:31 37° NNW 21:46:52 27° NNE
SL-08 R/B 4.4 21:38:54 17° N 21:43:49 72° E 21:50:09 10° SSE
ISS -1.3 21:47:40 10° WSW 21:50:23 22° SSW 21:53:07 10° SE
BREEZE-M R/B 3.8 21:40:16 10° WSW 21:50:57 64° SSE 21:51:48 48° ESE
IRS-1A Rocket 4.4 21:46:32 10° S 21:52:20 76° WSW 21:57:58 10° NNW
Cosmos 1656 3.6 21:48:57 10° SSW 21:54:43 85° ESE 21:56:36 45° NNE
Cosmos 1408 3.7 21:57:07 33° SE 21:57:07 33° SE 21:59:22 10° SSE
Cosmos 1356 Rocket 4.2 21:55:36 10° SSW 21:59:39 48° W 22:00:59 34° NW
Cosmos 2112 Rocket 4.5 21:58:37 10° S 22:03:46 44° ESE 22:04:11 43° ESE
Cosmos 2278 4.0 21:59:33 10° SSW 22:05:07 50° ESE 22:05:57 46° E
SPOT 3 Rocket 3.4 22:01:34 10° SSE 22:06:49 73° ENE 22:07:46 57° NNE
NOSS 2-3 (C) 4.1 22:04:36 10° SW 22:11:26 88° NW 22:12:32 60° NNE
Cosmos 1980 Rocket 2.8 22:09:03 10° S 22:14:23 40° ESE 22:14:45 40° ESE
Resurs 01 Rocket 3.1 22:11:51 10° SSE 22:14:09 26° SE 22:14:09 26° SE
Cosmos 1833 Rocket 2.7 22:10:41 10° NNW 22:16:20 79° WSW 22:22:04 10° SSE
Cosmos 1680 Rocket 3.4 22:14:35 10° SSW 22:19:57 71° ESE 22:20:09 70° E
Cosmos 1743 Rocket 4.4 22:22:33 42° SSE 22:22:33 42° SSE 22:25:38 10° SSE
Cosmos 1515 Rocket 3.8 22:17:18 10° S 22:21:09 62° SSE 22:21:09 62° SSE
H-2A R/B 1.9 22:17:20 10° SSE 22:22:23 86° WSW 22:23:03 68° NNW
Resurs 1-3 4.4 22:19:22 10° SSE 22:22:30 43° SSE 22:22:30 43° SSE
SJ 16-02 3.3 22:27:05 19° SE 22:27:05 19° SE 22:28:29 10° SSE
Tsikada Rocket 4.1 22:18:35 10° S 22:24:49 73° W 22:26:43 46° NNW
Mayak 0.5 22:30:32 25° SSE 22:30:32 25° SSE 22:32:51 10° S
EO 1 Del DPAF 4.3 22:29:46 43° WSW 22:29:46 43° WSW 22:32:54 10° SSW
Meteor 2-3 Rocket 3.9 22:30:36 57° ESE 22:30:36 57° ESE 22:35:46 10° SSE
Cosmos 1151 Rocket 3.7 22:29:51 10° SSW 22:33:48 51° WSW 22:33:48 51° WSW
Cosmos 923 Rocket 4.2 22:28:52 10° SSW 22:34:14 66° WNW 22:34:36 64° NW
ATLAS CENTAUR Rocket 4.0 22:05:45 10° WNW 22:37:14 41° NNW 22:38:39 39° N
Cosmos 1606 4.4 22:36:09 10° S 22:38:19 31° S 22:38:19 31° S
Cosmos 1825 3.9 22:44:05 32° SSW 22:44:05 32° SSW 22:46:25 10° S
Thor Agena Rocket 4.2 22:45:28 46° WNW 22:45:47 47° W 22:50:45 10° SSW
Meteor 1-26 Rocket 4.3 22:40:17 10° S 22:45:15 67° SSE 22:45:15 67° SSE
Cosmos 2082 Rocket 2.5 22:47:05 45° WNW 22:48:40 63° WSW 22:54:19 10° SSE
ARGOS 3.7 22:46:29 10° S 22:51:48 54° WSW 22:52:58 45° WNW
Lacrosse 4 Rocket 2.6 22:47:39 10° SSW 22:50:47 44° SSW 22:50:47 44° SSW
DELTA 2 R/B (1) 4.3 22:49:13 10° W 22:53:16 46° WNW 22:53:16 46° WNW
Cosmos 2228 Rocket 4.2 22:53:57 10° SSW 22:57:11 43° SSW 22:57:11 43° SSW
Lacrosse 5 rocket 4.3 23:04:11 11° SE 23:04:11 11° SE 23:04:26 10° SE
Cosmos 1697 Rocket 3.5 23:00:25 10° SW 23:05:35 43° W 23:05:35 43° W
USA 215 3.6 23:08:52 10° SE 23:15:22 63° SW 23:21:51 10° WNW
SL-16 R/B 3.3 23:11:48 10° S 23:16:05 37° SSE 23:16:05 37° SSE
Cosmos 1898 Rocket 4.4 23:17:36 46° WSW 23:17:36 46° WSW 23:22:40 10° S
CZ-2C R/B 4.1 23:14:16 10° S 23:19:17 42° WSW 23:19:45 41° W
Cosmos 2034 Rocket 4.4 23:25:24 56° SSE 23:25:24 56° SSE 23:30:30 10° S
Cosmos 2322 Rocket 3.3 23:39:40 10° SSW 23:43:34 41° S 23:43:34 41° S
USA 267 3.4 23:49:25 68° SSW 23:49:25 68° SSW 23:55:15 10° SW
Resurs 01 Rocket 4.0 23:49:04 10° SSW 23:51:44 19° SW 23:51:44 19° SW
Cosmos 2360 Rocket 3.7 23:47:28 10° S 23:51:06 29° SSE 23:51:06 29° SSE
